Notices

What's New in latest Release from April 7th, 2021:

- Updated Glossary, including Speed of Maximum Gust, and Total Hourly Precipitation

- Updated national and regional climate services offices contacts and prices information

- Addition of station inventory lists for 1981-2010, 1971-2000, and 1961-1990 Normals.

If you haven't already, please take our survey and provide feedback about our website: https://eccc.sondage-survey.ca/f/LanguageSelection.aspx?s=442ca660-fcf1-47c0-95a9-59707d6fd709

Hourly Data Report for October 06, 2017

VICTORIA UNIVERSITY CS
BRITISH COLUMBIA

48°27'25.200" N
123°18'16.600" W
60.10 m
1018598
71783
WYJ

Download Data

Hourly Data (October 2017)
Hourly Data Report for October 6, 2017
TIME
LST
Temp Definition
°C
Dew Point Definition
°C
Rel Hum Definition
%
Precip. Amount Definition
mm

Wind Dir Definition
10's deg

Wind Spd Definition
km/h
Visibility Definition
km
Stn Press Definition
kPa
Hmdx Definition


Wind Chill Definition


Weather Definition


00:00 5.9 4.1 89 0.0   0   101.24     LegendNANA
01:00 5.3 4.1 92 0.0 0 1   101.20     LegendNANA
02:00 5.4 4.7 95 0.0 12 1   101.16     LegendNANA
03:00 5.7 5.3 97 0.0 25 1   101.16     LegendNANA
04:00 7.9 7.5 97 0.0 24 7   101.08     LegendNANA
05:00 8.4 7.5 94 0.0 22 7   101.07     LegendNANA
06:00 9.8 6.8 82 0.0 21 8   101.01     LegendNANA
07:00 11.2 9.0 87 0.0 23 8   100.97     LegendNANA
08:00 12.7 10.7 87 0.0 27 11   101.02     LegendNANA
09:00 12.7 10.0 84 0.0 19 6   100.99     LegendNANA
10:00 11.5 8.0 79 0.0 16 11   100.91     LegendNANA
11:00 14.7 11.5 81 0.0 22 9   100.86     LegendNANA
12:00 15.1 12.1 82 0.0 26 13   100.79     LegendNANA
13:00 15.6 10.4 71 0.0 25 13   100.70     LegendNANA
14:00 14.5 10.3 76 0.0 25 10   100.67     LegendNANA
15:00 14.3 9.8 74 0.0 23 13   100.64     LegendNANA
16:00 12.3 10.6 90 0.0 19 7   100.59     LegendNANA
17:00 12.0 11.1 94 1.2 20 7   100.46     LegendNANA
18:00 12.2 11.4 95 1.3 23 11   100.39     LegendNANA
19:00 12.4 11.5 95 0.4 23 11   100.33     LegendNANA
20:00 11.5 10.7 95 1.4 22 7   100.36     LegendNANA
21:00 10.2 9.0 92 0.0 24 12   100.37     LegendNANA
22:00 10.4 9.2 92 0.0 30 8   100.45     LegendNANA
23:00 10.2 9.2 93 0.0 33 4   100.51     LegendNANA

Notes on Data Quality.

Legend

  • E = Estimated
  • M = Missing
  • NA = Not Available*
  • [empty] = Indicates an unobserved value
Date modified: